TimeEST,TemperatureF,Dew PointF,Humidity,Sea Level PressureIn,VisibilityMPH,Wind Direction,Wind SpeedMPH,Gust SpeedMPH,PrecipitationIn,Events,Conditions,WindDirDegrees,DateUTC
12:29 AM,17.6,10.4,73,29.81,10.0,West,8.1,-,N/A,,Overcast,260,2013-02-04 05:29:00
12:56 AM,17.1,10.0,74,29.87,10.0,West,12.7,-,N/A,,Overcast,270,2013-02-04 05:56:00
1:56 AM,16.2,9.1,74,29.88,10.0,West,6.9,-,N/A,,Overcast,280,2013-02-04 06:56:00
2:56 AM,15.1,9.1,77,29.89,10.0,WSW,8.1,-,N/A,,Overcast,250,2013-02-04 07:56:00
3:56 AM,16.2,9.1,74,29.89,10.0,West,9.2,-,N/A,,Overcast,260,2013-02-04 08:56:00
5:56 AM,15.1,7.2,71,29.92,10.0,West,11.5,-,N/A,,Overcast,280,2013-02-04 10:56:00
6:56 AM,15.1,8.1,74,29.94,10.0,West,10.4,-,N/A,,Mostly Cloudy,280,2013-02-04 11:56:00
7:56 AM,14.0,6.1,71,29.95,10.0,West,8.1,-,N/A,,Clear,280,2013-02-04 12:56:00
8:56 AM,17.1,7.2,65,29.96,10.0,West,10.4,-,N/A,,Scattered Clouds,270,2013-02-04 13:56:00
9:56 AM,18.1,8.1,65,29.96,7.0,WNW,17.3,-,0.00,,Mostly Cloudy,290,2013-02-04 14:56:00
10:56 AM,18.1,10.0,71,29.97,4.0,West,13.8,-,0.00,Snow,Light Snow,280,2013-02-04 15:56:00
11:56 AM,18.1,7.2,62,29.96,10.0,WNW,15.0,-,0.00,,Overcast,300,2013-02-04 16:56:00
12:56 PM,19.0,6.1,57,29.95,10.0,WNW,9.2,-,N/A,,Overcast,300,2013-02-04 17:56:00
1:03 PM,17.6,6.8,63,29.89,10.0,NNW,10.4,-,N/A,,Mostly Cloudy,330,2013-02-04 18:03:00
1:56 PM,18.1,7.2,62,29.94,10.0,West,11.5,-,0.00,Snow,Light Snow Showers,270,2013-02-04 18:56:00
2:56 PM,19.0,10.0,68,29.94,10.0,WSW,9.2,-,0.00,Snow,Light Snow Showers,250,2013-02-04 19:56:00
3:56 PM,19.0,9.1,65,29.94,10.0,WNW,9.2,-,0.00,Snow,Light Snow Showers,300,2013-02-04 20:56:00
4:56 PM,19.0,10.0,68,29.94,7.0,West,8.1,-,0.00,Snow,Light Snow Showers,280,2013-02-04 21:56:00
5:56 PM,18.1,10.0,71,29.94,7.0,West,6.9,-,0.00,Snow,Light Snow Showers,280,2013-02-04 22:56:00
6:56 PM,17.1,13.1,84,29.95,7.0,Calm,Calm,-,0.00,Snow,Light Snow Showers,0,2013-02-04 23:56:00
8:56 PM,17.1,13.1,84,29.95,10.0,Calm,Calm,-,0.00,Snow,Light Snow Showers,0,2013-02-05 01:56:00
9:56 PM,16.2,13.1,88,29.96,7.0,Calm,Calm,-,0.00,Snow,Light Snow Showers,0,2013-02-05 02:56:00
10:32 PM,15.8,12.2,86,29.89,4.0,Calm,Calm,-,0.00,Snow,Light Snow,0,2013-02-05 03:32:00
10:56 PM,16.2,14.0,91,29.95,4.0,Calm,Calm,-,0.00,Snow,Light Snow,0,2013-02-05 03:56:00
11:12 PM,15.8,12.2,86,29.89,4.0,Calm,Calm,-,0.00,Snow,Light Snow,0,2013-02-05 04:12:00
11:31 PM,15.8,12.2,86,29.89,3.0,Calm,Calm,-,0.00,Snow,Light Snow,0,2013-02-05 04:31:00
11:56 PM,16.2,13.1,88,29.96,4.0,Calm,Calm,-,0.00,Snow,Light Snow,0,2013-02-05 04:56:00